Location: Minneapolis
(45.0000°N, 93.0000°W)
Time: 06:03:42
(UTC-06:00)

Tiangong 1 - Visible Passes

Search period start: 24 February 2018 00:00
Search period end: 06 March 2018 00:00
Orbit: 246 x 267 km, 42.8° (Epoch: 24 February)

Date Brightness Start Highest point End Pass type
(mag) Time Alt. Az. Time Alt. Az. Time Alt. Az.
02 Mar 2.4 19:19:49 10° SSW 19:20:58 17° S 19:20:58 17° S visible
03 Mar 1.7 19:10:48 10° SW 19:12:41 23° SSE 19:12:51 23° SSE visible
04 Mar 1.4 19:01:35 10° SW 19:03:37 29° SSE 19:04:25 22° SE visible
05 Mar 1.2 18:52:12 10° WSW 18:54:18 35° S 18:55:40 17° ESE visible
